sat.trackr.live / text

‹ back to catalog

STARLINK-36967

NORAD 68013 · 2026-039AD

PAYLOAD ACTIVE UNKNOWN

§ Identity

Operator
Country
US
Launch date
2026-02-27
Launch site
AFETR
Launch vehicle
Mass (kg)
RCS (m²)

Purposes: comms

External: N2YO · Heavens-Above · Gunter

§ Orbital elements

Epoch: 2026-05-24T14:21:00.237888Z

Period
94.27 min
Inclination
43.0012°
Eccentricity
0.0001260
Mean motion
15.27585030 rev/d
Perigee alt
482.2 km
Apogee alt
483.9 km
Semi-major
6,861.2 km
B*
5.2464e-4
RAAN
340.1585°
Arg perigee
254.7812°
Mean anomaly
105.2900°
Rev number
1,331

§ Raw data

STARLINK-369671 68013U 26039AD  26144.59791942  .00014205  00000+0  52464-3 0  99962 68013  43.0012 340.1585 0001260 254.7812 105.2900 15.27585030 13315

JSON: /api/v1/satellites/68013 · /tle

For live sub-satellite position, see the globe view (requires WebGL).

§ Visibility from observer

Set your observer location to see the next 7 days of passes ≥ 10°. The values pass through the URL so the page stays shareable.

No JS? Fill the form by hand. The geolocation button needs JavaScript.